Wind_Speed
18 16 26 41 45 50 57 70 82 91 99 102 104 102 99 105 109 109 110 111 109 109 108 110 106 107 114 120 129 128 127 125 117 106 113 115 109 109 100 99 88 98 88 85
28 28 27 22 31 48 53 56 59 66 79 92 95 106 106 111 112 112 110 111 111 111 111 111 110 109 107 106 117 122 128 120 120 123 115 114 105 107 100 96 91 87 101 97
34 33 38 37 33 33 47 55 59 65 74 78 91 101 106 113 113 119 116 115 114 115 118 118 114 110 107 102 101 109 124 120 117 117 123 108 108 100 95 108 96 96 101 98
39 39 40 46 46 41 37 49 53 57 67 80 96 94 93 95 108 120 119 120 121 119 117 115 113 109 104 101 103 103 103 105 108 106 105 105 105 98 89 97 101 100 93 100
44 43 48 47 54 54 48 44 49 57 67 77 79 86 76 91 93 100 112 120 122 121 121 117 111 108 105 106 104 103 102 102 107 108 109 107 105 102 100 105 100 98 100 92
43 47 52 57 61 64 57 49 53 60 61 66 63 75 58 74 84 93 101 106 113 121 121 121 118 115 109 106 103 103 102 103 105 105 103 101 101 101 101 101 99 98 98 90
46 48 53 55 59 67 66 57 58 58 56 51 59 55 42 63 75 84 96 95 95 104 112 116 118 115 111 108 109 109 107 103 103 104 103 101 98 97 96 95 96 96 94 93
49 49 57 60 65 68 72 63 66 57 45 45 50 46 52 57 65 69 76 84 88 94 101 110 112 110 111 112 112 112 111 108 107 108 104 99 97 96 94 94 94 94 91 89
53 52 59 61 68 71 76 65 69 58 43 37 44 50 50 59 60 64 60 67 79 86 91 100 108 113 113 113 113 113 112 112 110 110 108 102 100 99 96 95 94 92 92 91
56 58 63 66 70 76 78 67 68 54 43 35 36 45 53 52 55 64 65 60 64 73 81 90 97 103 104 102 104 109 112 111 108 108 109 106 104 102 100 98 96 93 92 91
60 64 68 70 74 78 77 72 64 49 46 38 33 41 52 54 56 59 65 59 59 64 69 77 84 90 96 97 97 94 94 98 105 108 108 107 104 102 101 100 98 96 94 93
64 65 69 72 78 82 74 72 57 46 42 39 36 38 42 52 51 47 53 56 60 58 60 67 74 81 87 94 96 96 96 95 95 97 101 104 106 105 104 103 102 99 98 94
65 66 70 76 80 86 72 66 50 42 37 38 31 34 39 42 42 46 50 52 56 58 57 60 68 74 79 84 90 95 97 97 98 99 100 101 102 104 104 104 103 101 99 96
67 69 71 74 81 84 71 60 44 34 33 27 29 29 33 36 34 37 42 48 51 52 54 57 55 62 71 77 83 89 91 94 94 92 91 93 93 94 95 96 97 97 98 98
66 69 72 74 81 80 72 55 41 32 25 23 24 20 24 27 30 29 27 34 42 45 47 49 45 45 50 59 72 75 80 88 90 89 87 89 89 85 84 84 85 86 87 88
67 69 73 75 84 74 66 49 34 27 26 24 20 12 13 15 18 20 21 25 34 37 40 42 42 42 43 45 48 59 71 81 81 81 82 84 84 85 84 83 80 79 79 80
67 68 71 77 78 71 60 42 26 22 20 18 17 12 11 9 11 14 18 20 25 30 35 37 38 37 38 38 44 47 58 70 76 83 85 85 85 83 82 80 79 76 76 75
66 67 71 77 71 67 48 31 17 17 14 12 9 6 3 6 6 7 10 13 15 19 26 32 35 35 36 36 38 43 52 60 68 78 85 88 88 87 87 85 82 81 79 77
64 66 71 74 66 55 37 22 11 9 9 10 15 20 19 20 20 21 22 20 19 17 15 16 21 25 30 32 36 38 45 53 62 65 74 83 89 90 92 89 89 87 84 80
62 65 71 66 61 42 26 11 7 15 24 28 30 31 29 30 29 28 27 26 25 22 23 23 23 23 25 30 30 26 32 42 50 60 71 77 81 82 87 91 92 91 86 84
61 64 66 62 46 30 13 10 21 27 30 33 32 29 30 36 38 35 33 34 32 29 25 19 21 24 27 30 28 26 31 33 45 54 63 71 73 71 72 76 80 80 81 82
59 63 57 53 27 13 6 19 26 31 33 32 33 38 38 40 38 37 39 39 36 34 32 29 25 23 27 29 27 29 29 36 37 40 45 55 63 65 62 60 60 56 53 54
56 59 52 38 16 5 17 25 33 34 35 39 41 38 34 32 35 38 38 36 37 38 36 32 28 26 24 23 23 28 32 28 30 33 38 44 48 54 55 52 54 53 48 46
53 47 44 23 3 12 21 33 34 30 34 37 35 36 36 39 41 39 37 38 37 38 40 40 36 29 24 20 17 19 20 21 27 28 29 31 33 36 39 41 44 44 43 42
46 39 36 4 6 13 25 29 30 28 35 39 35 36 38 40 44 41 34 34 33 35 39 40 41 35 29 22 14 12 12 14 17 18 20 21 24 27 30 30 32 33 35 35
36 33 12 8 12 14 22 21 26 38 36 36 36 36 38 41 39 37 34 34 35 36 37 42 43 42 41 35 23 13 9 6 6 7 11 15 17 19 21 22 25 26 26 28
Wind_Direction
332 323 298 268 262 258 255 253 251 250 251 252 253 249 248 249 251 251 250 250 248 248 250 249 252 252 252 250 248 253 253 251 245 245 246 249 250 253 256 256 254 262 258 258
346 342 323 313 286 263 259 257 255 251 252 252 252 252 249 247 249 250 251 252 251 247 246 247 249 249 247 248 249 251 252 253 253 253 254 247 248 252 249 252 255 258 259 258
338 338 342 332 320 296 265 259 256 256 257 257 255 252 251 249 246 249 250 250 251 251 248 246 245 247 248 249 249 247 249 250 254 256 257 256 253 250 251 248 249 253 259 260
328 333 333 334 329 322 293 269 264 265 265 262 260 256 254 252 249 247 246 248 249 249 249 248 248 247 246 248 249 250 251 251 252 251 250 252 252 252 249 251 249 249 251 257
327 326 332 329 332 326 317 290 281 284 277 267 265 262 253 250 250 249 246 243 246 249 250 250 248 247 246 247 247 248 250 250 251 250 250 250 250 248 249 248 249 249 250 251
329 325 330 331 333 330 322 304 296 294 284 273 264 260 253 252 248 247 246 243 243 245 245 248 249 248 246 246 246 247 247 246 248 250 251 249 248 247 245 245 246 247 246 249
330 323 326 325 327 329 325 312 307 303 290 276 261 261 248 246 247 244 245 244 242 243 245 247 248 250 249 248 247 246 247 248 250 250 250 250 250 249 248 249 247 246 246 247
330 323 324 325 326 328 328 319 314 303 289 272 262 256 248 246 248 250 248 246 242 241 241 242 243 244 245 245 245 247 247 247 248 249 249 250 251 250 248 248 248 249 248 247
331 330 323 325 329 328 331 321 318 306 292 273 261 260 251 251 249 250 247 249 245 241 241 240 242 243 243 244 244 244 246 247 248 250 250 250 250 250 250 250 249 248 248 247
328 330 326 327 330 329 331 323 319 306 294 281 259 258 260 253 252 249 246 245 244 242 240 239 241 243 244 247 248 247 248 249 249 249 251 251 251 251 251 250 250 249 249 249
327 329 327 328 330 330 330 326 318 305 297 291 268 261 254 253 247 247 249 245 246 244 240 238 240 241 242 242 245 247 248 249 249 249 250 251 250 251 251 251 250 250 250 250
327 328 326 328 329 331 330 327 317 305 295 284 267 258 253 249 256 256 252 252 248 246 246 241 239 239 240 242 243 243 242 243 244 246 248 250 250 250 251 252 252 252 251 250
326 327 326 328 329 331 331 326 316 305 293 282 275 260 257 254 252 248 248 248 248 248 247 248 243 240 239 240 241 241 242 243 244 243 244 246 249 251 251 252 252 253 252 253
325 325 326 329 328 330 331 328 317 305 297 293 277 272 265 261 255 246 245 248 251 251 250 249 247 246 246 244 242 242 242 243 243 244 247 249 248 250 252 253 253 253 253 253
324 324 326 329 328 329 331 329 318 308 299 288 283 286 279 267 265 262 253 246 253 258 257 259 261 259 252 248 248 249 249 247 246 244 244 247 248 247 249 251 252 251 251 251
323 324 326 329 329 330 331 328 320 308 300 295 278 262 268 266 261 262 260 251 254 257 257 258 260 260 254 245 238 240 244 246 249 250 246 244 245 248 247 246 248 249 249 248
323 324 327 328 330 330 331 330 327 310 308 297 293 298 272 271 273 271 271 272 269 265 268 269 264 260 257 250 238 232 229 236 240 242 243 246 247 246 247 247 247 246 247 247
321 325 327 328 331 330 330 329 329 311 316 324 332 348 18 52 40 360 335 321 302 288 281 278 275 270 265 257 247 239 233 230 236 240 241 243 242 243 245 246 245 244 244 243
321 326 327 329 331 330 329 326 340 351 19 40 55 61 66 67 51 40 30 18 2 345 321 297 280 277 275 268 257 245 239 236 234 231 235 238 241 242 242 242 243 244 243 242
321 326 327 329 332 330 329 341 51 79 75 76 74 68 61 54 42 34 30 22 8 359 344 330 312 296 277 269 260 253 246 242 239 235 233 236 240 241 241 242 244 244 243 241
323 327 328 330 334 331 341 69 87 87 83 75 71 64 60 54 44 43 41 31 21 2 347 334 319 301 284 275 268 259 247 239 237 237 237 241 245 246 244 243 246 248 248 246
325 327 330 333 338 342 83 96 93 89 91 89 82 72 63 51 41 36 34 25 18 9 355 342 326 304 290 284 276 262 255 249 245 241 242 244 246 249 252 254 255 257 254 249
325 327 335 341 346 90 115 100 96 98 89 83 73 62 57 55 47 44 43 38 32 23 11 356 341 322 306 287 271 258 255 252 247 243 240 238 238 242 248 248 250 252 248 243
326 328 337 347 3 125 106 103 99 96 93 84 82 80 70 61 59 59 55 47 40 34 26 15 7 356 335 312 291 264 261 249 245 245 244 240 239 240 239 237 237 237 237 235
326 334 334 321 171 116 107 101 109 102 97 89 82 75 70 71 75 71 57 50 42 36 33 30 26 20 12 1 334 311 279 256 241 235 234 232 231 228 224 222 223 225 225 223
328 348 336 188 146 120 109 107 111 104 96 93 83 77 79 90 80 72 60 50 45 37 34 36 31 31 32 27 17 1 349 301 246 220 221 219 217 215 218 217 212 212 211 208
Height
10640 10638 10633 10631 10630 10628 10626 10627 10629 10628 10619 10613 10620 10637 10646 10637 10629 10639 10644 10645 10660 10673 10680 10685 10692 10700 10713 10721 10730 10734 10741 10746 10757 10758 10772 10782 10796 10800 10805 10800 10810 10809 10814 10820
10632 10629 10624 10621 10617 10614 10611 10610 10609 10606 10594 10593 10590 10599 10618 10616 10611 10609 10616 10615 10624 10640 10649 10658 10665 10672 10684 10691 10703 10708 10715 10717 10725 10735 10746 10761 10776 10785 10790 10791 10791 10789 10795 10803
10623 10620 10614 10609 10603 10599 10596 10594 10591 10589 10575 10576 10564 10563 10582 10588 10589 10581 10588 10587 10591 10605 10618 10628 10640 10655 10664 10674 10677 10680 10687 10699 10704 10716 10728 10735 10750 10762 10768 10775 10779 10782 10777 10784
10611 10608 10602 10595 10589 10583 10579 10570 10572 10568 10559 10551 10533 10541 10553 10558 10551 10552 10563 10563 10566 10572 10585 10602 10621 10638 10645 10652 10653 10658 10664 10673 10679 10689 10701 10708 10720 10730 10740 10749 10758 10764 10766 10768
10601 10595 10590 10583 10575 10567 10561 10553 10547 10540 10528 10518 10514 10502 10535 10518 10525 10529 10528 10535 10540 10555 10562 10577 10591 10606 10617 10621 10633 10638 10644 10649 10649 10662 10673 10681 10693 10704 10714 10721 10732 10738 10744 10748
10592 10582 10572 10561 10556 10549 10542 10533 10523 10511 10501 10493 10486 10471 10508 10496 10498 10496 10495 10505 10518 10523 10534 10543 10556 10571 10587 10598 10610 10614 10620 10623 10625 10631 10643 10658 10670 10682 10690 10697 10707 10711 10717 10725
10580 10571 10564 10558 10549 10534 10521 10510 10501 10490 10474 10473 10458 10466 10482 10463 10460 10466 10467 10484 10501 10506 10514 10524 10531 10545 10559 10574 10577 10578 10588 10599 10603 10610 10621 10633 10646 10659 10670 10677 10684 10690 10698 10705
10575 10565 10552 10543 10534 10521 10504 10490 10475 10464 10458 10450 10445 10454 10449 10447 10443 10448 10457 10466 10476 10478 10490 10494 10501 10511 10523 10534 10545 10554 10563 10574 10580 10583 10597 10613 10624 10633 10643 10650 10657 10665 10676 10684
10562 10552 10541 10532 10519 10501 10489 10471 10457 10442 10438 10437 10430 10430 10433 10428 10433 10429 10438 10445 10452 10461 10468 10472 10477 10483 10496 10506 10519 10529 10539 10548 10559 10566 10577 10593 10600 10607 10617 10625 10635 10644 10650 10658
10548 10540 10526 10514 10502 10484 10469 10455 10440 10425 10420 10422 10420 10415 10412 10415 10416 10415 10416 10425 10431 10438 10448 10453 10459 10467 10481 10493 10502 10508 10515 10530 10544 10548 10552 10565 10572 10580 10591 10601 10609 10618 10626 10636
10532 10520 10506 10498 10486 10472 10454 10437 10421 10410 10402 10400 10402 10400 10393 10393 10394 10398 10401 10415 10417 10422 10429 10438 10445 10451 10459 10468 10475 10488 10499 10509 10516 10521 10524 10534 10546 10555 10563 10571 10580 10591 10602 10611
10518 10509 10495 10484 10468 10457 10440 10423 10406 10396 10390 10385 10385 10384 10386 10382 10388 10394 10395 10399 10402 10407 10414 10419 10425 10432 10439 10446 10457 10465 10471 10480 10486 10492 10499 10504 10515 10527 10536 10543 10554 10567 10577 10587
10509 10498 10484 10466 10452 10439 10425 10409 10394 10384 10378 10372 10372 10371 10370 10374 10377 10377 10380 10384 10385 10391 10398 10403 10407 10414 10419 10426 10433 10440 10447 10457 10464 10470 10475 10483 10490 10499 10510 10520 10529 10540 10551 10562
10496 10484 10472 10460 10440 10425 10411 10397 10382 10374 10366 10363 10359 10361 10362 10362 10365 10367 10370 10371 10373 10378 10381 10386 10393 10400 10404 10408 10412 10416 10424 10431 10441 10451 10457 10464 10473 10478 10487 10498 10508 10517 10525 10534
10486 10473 10461 10450 10432 10413 10400 10385 10372 10364 10359 10354 10350 10353 10354 10355 10355 10359 10362 10364 10364 10365 10370 10374 10380 10384 10389 10396 10400 10403 10408 10411 10418 10431 10441 10444 10449 10461 10468 10474 10482 10490 10500 10509
10475 10462 10448 10437 10419 10402 10389 10375 10365 10356 10350 10347 10345 10345 10344 10346 10347 10349 10351 10353 10353 10353 10355 10359 10363 10366 10369 10374 10379 10385 10389 10391 10398 10410 10420 10425 10432 10438 10448 10453 10459 10469 10479 10486
10468 10455 10440 10424 10411 10394 10378 10368 10358 10350 10346 10344 10341 10342 10341 10342 10344 10346 10347 10348 10349 10349 10347 10348 10349 10351 10353 10356 10359 10365 10368 10371 10377 10385 10392 10400 10407 10415 10422 10431 10440 10449 10456 10465
10458 10446 10432 10417 10402 10384 10373 10363 10355 10347 10345 10344 10342 10341 10342 10343 10342 10343 10343 10344 10346 10345 10342 10340 10341 10341 10341 10343 10346 10348 10351 10355 10358 10364 10370 10375 10382 10389 10394 10402 10413 10423 10433 10442
10448 10437 10422 10407 10394 10377 10365 10359 10354 10349 10347 10346 10345 10344 10344 10345 10346 10347 10346 10344 10343 10341 10340 10338 10335 10332 10330 10330 10330 10333 10336 10338 10341 10349 10351 10353 10357 10365 10371 10379 10386 10394 10406 10418
10442 10430 10415 10397 10384 10371 10362 10358 10354 10351 10351 10349 10347 10347 10348 10348 10347 10348 10347 10345 10342 10338 10333 10328 10324 10321 10320 10316 10316 10322 10323 10323 10330 10331 10330 10331 10334 10342 10350 10358 10364 10370 10381 10394
10432 10421 10407 10392 10379 10368 10363 10360 10357 10355 10353 10353 10352 10352 10353 10352 10350 10347 10344 10341 10339 10335 10328 10325 10320 10314 10308 10305 10304 10305 10305 10309 10307 10308 10312 10316 10320 10325 10332 10339 10345 10353 10364 10376
10423 10412 10401 10386 10376 10370 10366 10363 10361 10360 10360 10360 10358 10358 10356 10354 10352 10351 10348 10347 10342 10334 10327 10318 10312 10305 10300 10296 10294 10293 10293 10290 10294 10298 10303 10306 10309 10310 10316 10323 10330 10339 10348 10358
10418 10405 10393 10382 10375 10374 10372 10369 10367 10367 10366 10364 10363 10362 10362 10362 10360 10357 10354 10351 10345 10338 10329 10319 10309 10300 10292 10286 10285 10283 10280 10281 10282 10285 10288 10291 10294 10299 10303 10311 10316 10323 10331 10340
10412 10401 10391 10381 10380 10379 10376 10373 10373 10372 10371 10369 10370 10370 10370 10368 10365 10365 10363 10356 10351 10343 10335 10323 10311 10300 10290 10282 10277 10274 10272 10273 10274 10275 10278 10283 10287 10291 10295 10299 10305 10311 10319 10325
10405 10396 10386 10385 10384 10382 10380 10379 10378 10378 10378 10377 10378 10375 10375 10374 10370 10371 10369 10363 10357 10350 10341 10329 10317 10303 10291 10281 10275 10270 10267 10267 10268 10269 10272 10273 10278 10283 10288 10292 10297 10303 10310 10317
10399 10391 10385 10385 10387 10385 10384 10384 10385 10385 10385 10383 10382 10382 10380 10380 10379 10377 10376 10369 10364 10356 10348 10335 10325 10312 10297 10285 10276 10271 10267 10267 10266 10265 10268 10273 10276 10279 10282 10287 10292 10298 10305 10312